When you browse on this site, cookies collect data to enhance your experience and personalize the content and advertising you see.
Visit our Privacy Policy to learn more. By continuing to use the site, you agree to this use of cookies and data.
  • In Hungary
  • List of Countries
  • For 7 days
  • Water Temperature
  • Weather Map
  • News
  • Weather Widgets
  • user-avatar
    Login

    Hourly Weather Budennovskaya

    Today, 15 October, Tuesday

    Time Temperature Precipitation Wind Pressure Humidity
    00:00 +15°C° 0 mm 2 mps 765 mmHg 66%
    01:00 +15°C° 0 mm 1 mps 765 mmHg 67%
    02:00 +14°C° 0 mm 1 mps 765 mmHg 68%
    03:00 +14°C° 0 mm 1 mps 764 mmHg 69%
    04:00 +14°C° 0 mm 1 mps 764 mmHg 68%
    05:00 +13°C° 0 mm 1 mps 764 mmHg 68%
    06:00 +13°C° 0 mm 1 mps 764 mmHg 67%
    07:00 +15°C° 0 mm 1 mps 764 mmHg 62%
    08:00 +16°C° 0 mm 1 mps 764 mmHg 56%
    09:00 +19°C° 0 mm 1 mps 764 mmHg 50%
    10:00 +20°C° 0 mm 1 mps 764 mmHg 44%
    11:00 +22°C° 0 mm 1 mps 764 mmHg 39%
    12:00 +24°C° 0 mm 1 mps 764 mmHg 33%
    13:00 +24°C° 0 mm 1 mps 763 mmHg 32%
    14:00 +25°C° 0 mm 1 mps 763 mmHg 31%
    15:00 +25°C° 0 mm 1 mps 763 mmHg 30%
    16:00 +24°C° 0 mm 1 mps 762 mmHg 34%
    17:00 +22°C° 0 mm 1 mps 762 mmHg 39%
    18:00 +20°C° 0 mm 1 mps 762 mmHg 43%
    19:00 +19°C° 0 mm 1 mps 762 mmHg 45%
    20:00 +19°C° 0 mm 1 mps 762 mmHg 47%
    21:00 +18°C° 0 mm 1 mps 763 mmHg 49%
    22:00 +18°C° 0 mm 1 mps 763 mmHg 50%
    23:00 +16°C° 0 mm 1 mps 762 mmHg 51%

    Tomorrow, 16 October, Wednesday

    Time Temperature Precipitation Wind Pressure Humidity
    00:00 +16°C° 0 mm 1 mps 762 mmHg 52%
    01:00 +15°C° 0 mm 1 mps 763 mmHg 53%
    02:00 +15°C° 0 mm 1 mps 763 mmHg 54%
    03:00 +14°C° 0 mm 2 mps 763 mmHg 55%
    04:00 +14°C° 0 mm 2 mps 763 mmHg 56%
    05:00 +14°C° 0 mm 2 mps 763 mmHg 58%
    06:00 +13°C° 0 mm 2 mps 763 mmHg 60%
    07:00 +15°C° 0 mm 2 mps 763 mmHg 58%
    08:00 +16°C° 0 mm 2 mps 763 mmHg 56%
    09:00 +18°C° 0 mm 3 mps 764 mmHg 54%
    10:00 +20°C° 0 mm 3 mps 764 mmHg 49%
    11:00 +21°C° 0 mm 3 mps 764 mmHg 43%
    12:00 +24°C° 0 mm 3 mps 764 mmHg 38%
    13:00 +23°C° 0 mm 4 mps 764 mmHg 38%
    14:00 +25°C° 0 mm 4 mps 763 mmHg 37%
    15:00 +25°C° 0 mm 4 mps 763 mmHg 36%
    16:00 +22°C° 0 mm 4 mps 763 mmHg 44%
    17:00 +20°C° 0 mm 4 mps 763 mmHg 52%
    18:00 +18°C° 0 mm 4 mps 764 mmHg 59%
    19:00 +18°C° 0 mm 4 mps 764 mmHg 64%
    20:00 +17°C° 0 mm 4 mps 764 mmHg 68%
    21:00 +16°C° 0 mm 5 mps 764 mmHg 72%
    22:00 +15°C° 0 mm 5 mps 764 mmHg 74%
    23:00 +15°C° 0 mm 5 mps 764 mmHg 75%

    Day after tomorrow, 17 October, Thursday

    Time Temperature Precipitation Wind Pressure Humidity
    00:00 +14°C° 0 mm 4 mps 764 mmHg 77%
    01:00 +13°C° 0 mm 4 mps 764 mmHg 78%
    02:00 +13°C° 0 mm 5 mps 764 mmHg 78%
    03:00 +13°C° 0 mm 5 mps 764 mmHg 79%
    04:00 +12°C° 0 mm 5 mps 764 mmHg 79%
    05:00 +12°C° 0 mm 4 mps 764 mmHg 80%
    06:00 +11°C° 0 mm 4 mps 765 mmHg 80%
    07:00 +12°C° 0 mm 5 mps 765 mmHg 75%
    08:00 +14°C° 0 mm 5 mps 765 mmHg 70%
    09:00 +15°C° 0 mm 5 mps 765 mmHg 65%
    10:00 +17°C° 0 mm 5 mps 764 mmHg 59%
    11:00 +19°C° 0 mm 6 mps 764 mmHg 54%
    12:00 +21°C° 0 mm 6 mps 764 mmHg 49%
    13:00 +21°C° 0 mm 6 mps 764 mmHg 47%
    14:00 +22°C° 0 mm 6 mps 763 mmHg 45%
    15:00 +22°C° 0 mm 6 mps 763 mmHg 44%
    16:00 +21°C° 0 mm 5 mps 763 mmHg 49%
    17:00 +19°C° 0 mm 4 mps 763 mmHg 54%
    18:00 +17°C° 0 mm 4 mps 762 mmHg 59%
    19:00 +17°C° 0 mm 4 mps 762 mmHg 62%
    20:00 +15°C° 0 mm 4 mps 762 mmHg 65%
    21:00 +15°C° 0 mm 4 mps 762 mmHg 68%
    22:00 +14°C° 0 mm 4 mps 762 mmHg 71%
    23:00 +14°C° 0 mm 4 mps 762 mmHg 73%

    18 October, Friday

    Time Temperature Precipitation Wind Pressure Humidity
    00:00 +13°C° 0 mm 3 mps 762 mmHg 76%
    01:00 +13°C° 0 mm 3 mps 762 mmHg 78%
    02:00 +12°C° 0 mm 3 mps 762 mmHg 80%
    03:00 +12°C° 0 mm 3 mps 761 mmHg 82%
    04:00 +11°C° 0 mm 3 mps 761 mmHg 84%
    05:00 +11°C° 0 mm 3 mps 761 mmHg 86%
    06:00 +11°C° 0 mm 3 mps 761 mmHg 88%
    07:00 +12°C° 0 mm 3 mps 761 mmHg 82%
    08:00 +13°C° 0 mm 3 mps 761 mmHg 76%
    09:00 +16°C° 0 mm 3 mps 761 mmHg 70%
    10:00 +18°C° 0 mm 3 mps 761 mmHg 61%
    11:00 +20°C° 0 mm 3 mps 761 mmHg 52%
    12:00 +21°C° 0 mm 3 mps 761 mmHg 43%
    13:00 +22°C° 0 mm 3 mps 761 mmHg 41%
    14:00 +23°C° 0 mm 2 mps 760 mmHg 38%
    15:00 +24°C° 0 mm 2 mps 760 mmHg 36%
    16:00 +21°C° 0 mm 2 mps 760 mmHg 41%
    17:00 +20°C° 0 mm 1 mps 760 mmHg 47%
    18:00 +18°C° 0 mm 1 mps 760 mmHg 52%
    19:00 +18°C° 0 mm 1 mps 760 mmHg 53%
    20:00 +16°C° 0 mm 1 mps 761 mmHg 55%
    21:00 +16°C° 0 mm 2 mps 761 mmHg 56%
    22:00 +15°C° 0 mm 2 mps 761 mmHg 57%
    23:00 +15°C° 0 mm 2 mps 761 mmHg 58%

    19 October, Saturday

    Time Temperature Precipitation Wind Pressure Humidity
    00:00 +14°C° 0 mm 2 mps 761 mmHg 58%
    01:00 +14°C° 0 mm 1 mps 761 mmHg 59%
    02:00 +14°C° 0 mm 1 mps 761 mmHg 60%
    03:00 +14°C° 0 mm 1 mps 761 mmHg 61%
    04:00 +13°C° 0 mm 1 mps 762 mmHg 62%
    05:00 +13°C° 0 mm 1 mps 762 mmHg 63%
    06:00 +13°C° 0 mm 2 mps 762 mmHg 64%
    07:00 +14°C° 0 mm 2 mps 762 mmHg 60%
    08:00 +16°C° 0 mm 2 mps 763 mmHg 55%
    09:00 +17°C° 0 mm 2 mps 763 mmHg 51%
    10:00 +19°C° 0 mm 2 mps 763 mmHg 46%
    11:00 +20°C° 0 mm 2 mps 763 mmHg 41%
    12:00 +23°C° 0 mm 2 mps 763 mmHg 36%
    13:00 +23°C° 0 mm 2 mps 763 mmHg 35%
    14:00 +24°C° 0 mm 2 mps 763 mmHg 34%
    15:00 +24°C° 0 mm 2 mps 762 mmHg 33%
    16:00 +21°C° 0 mm 2 mps 763 mmHg 38%
    17:00 +20°C° 0 mm 2 mps 763 mmHg 43%
    18:00 +18°C° 0 mm 2 mps 763 mmHg 48%
    19:00 +17°C° 0 mm 3 mps 763 mmHg 50%
    20:00 +16°C° 0 mm 3 mps 763 mmHg 52%
    21:00 +16°C° 0 mm 3 mps 763 mmHg 54%
    22:00 +14°C° 0 mm 3 mps 763 mmHg 55%
    23:00 +14°C° 0 mm 3 mps 763 mmHg 56%

    20 October, Sunday

    Time Temperature Precipitation Wind Pressure Humidity
    00:00 +13°C° 0 mm 3 mps 763 mmHg 57%
    01:00 +13°C° 0 mm 3 mps 763 mmHg 58%
    02:00 +13°C° 0 mm 3 mps 763 mmHg 58%
    03:00 +12°C° 0 mm 3 mps 763 mmHg 59%
    04:00 +12°C° 0 mm 3 mps 764 mmHg 60%
    05:00 +12°C° 0 mm 3 mps 764 mmHg 62%
    06:00 +11°C° 0 mm 3 mps 764 mmHg 63%
    07:00 +13°C° 0 mm 3 mps 764 mmHg 60%
    08:00 +14°C° 0 mm 3 mps 764 mmHg 58%
    09:00 +15°C° 0 mm 4 mps 765 mmHg 55%
    10:00 +18°C° 0 mm 4 mps 765 mmHg 49%
    11:00 +20°C° 0 mm 4 mps 765 mmHg 44%
    12:00 +21°C° 0 mm 4 mps 765 mmHg 38%
    13:00 +21°C° 0 mm 5 mps 765 mmHg 36%
    14:00 +22°C° 0 mm 5 mps 764 mmHg 35%
    15:00 +22°C° 0 mm 5 mps 764 mmHg 33%
    16:00 +20°C° 0 mm 4 mps 764 mmHg 37%
    17:00 +18°C° 0 mm 4 mps 765 mmHg 42%
    18:00 +16°C° 0 mm 3 mps 765 mmHg 46%
    19:00 +15°C° 0 mm 4 mps 765 mmHg 49%
    20:00 +14°C° 0 mm 4 mps 765 mmHg 51%
    21:00 +13°C° 0 mm 4 mps 766 mmHg 54%
    22:00 +13°C° 0 mm 4 mps 766 mmHg 55%
    23:00 +13°C° 0 mm 4 mps 766 mmHg 57%
    Show more